Location: *
(48.4333°N, 5.0333°W)
Time: 03:28:17
(UTC+00:00)

Cosmos 1980 Rocket - Pass Details

Date: 09 April 2020
Orbit: 828 x 850 km, 71.0° (Epoch: 29 May)

Event Time Altitude Azimuth Distance (km) Brightness Sun altitude
Rises 21:35:34 0° 334° (NNW) 3,388 6.5 -22.8°
Reaches altitude 10° 21:38:08 10° 341° (NNW) 2,453 5.5 -23.1°
Maximum altitude 21:43:30 44° 54° (NE) 1,146 2.8 -23.7°
Enters shadow 21:44:25 41° 80° (E) 1,205 2.7 -23.9°
